Location: Bremen
(53.0793°N, 8.8017°E)
Time: 20:25:48
(UTC+02:00)

Tiros 1 despin weight - All Passes

Search period start: 23 April 2024 00:00
Search period end: 03 May 2024 00:00
Orbit: 579 x 623 km, 48.2° (Epoch: 22 April)

Date Brightness Start Highest point End Pass type
(mag) Time Alt. Az. Time Alt. Az. Time Alt. Az.
23 Apr - 12:22:35 10° SSE 12:24:18 12° SE 12:26:04 10° ESE daylight
23 Apr - 14:00:35 10° SW 14:04:31 32° SSE 14:08:31 10° E daylight
23 Apr - 15:40:55 10° WSW 15:45:12 45° S 15:49:31 10° ESE daylight
23 Apr - 17:21:51 10° W 17:25:53 33° SSW 17:29:57 10° SE daylight
23 Apr - 19:04:03 10° WSW 19:06:09 13° SW 19:08:15 10° S daylight
24 Apr - 12:31:51 10° S 12:34:50 18° SSE 12:37:51 10° ESE daylight
24 Apr - 14:11:06 10° SW 14:15:14 38° SSE 14:19:25 10° E daylight
24 Apr - 15:51:42 10° WSW 15:55:58 44° S 16:00:16 10° ESE daylight
24 Apr - 17:32:50 10° W 17:36:33 25° SSW 17:40:17 10° SSE daylight
25 Apr - 12:41:49 10° SSW 12:45:24 24° SSE 12:49:01 10° E daylight
25 Apr - 14:21:45 10° WSW 14:25:58 43° S 14:30:14 10° ESE daylight
25 Apr - 16:02:31 10° W 16:06:42 39° SSW 16:10:55 10° SE daylight
25 Apr - 17:43:59 10° WSW 17:47:08 19° SSW 17:50:18 10° SSE daylight
26 Apr - 11:14:07 10° SSE 11:15:49 12° SE 11:17:33 10° ESE daylight
26 Apr - 12:52:07 10° SW 12:56:01 31° SSE 12:59:59 10° E daylight
26 Apr - 14:32:27 10° WSW 14:36:41 45° S 14:41:00 10° ESE daylight
26 Apr - 16:13:22 10° W 16:17:22 32° SSW 16:21:25 10° SE daylight
26 Apr - 17:55:35 10° WSW 17:57:38 13° SW 17:59:41 10° S daylight
27 Apr - 11:23:20 10° S 11:26:17 18° SSE 11:29:16 10° ESE daylight
27 Apr - 13:02:35 10° SW 13:06:41 38° SSE 13:10:50 10° E daylight
27 Apr - 14:43:11 10° WSW 14:47:24 44° S 14:51:41 10° ESE daylight
27 Apr - 16:24:18 10° W 16:27:59 25° SSW 16:31:41 10° SSE daylight
28 Apr - 11:33:16 10° SSW 11:36:49 24° SSE 11:40:24 10° E daylight
28 Apr - 13:13:11 10° WSW 13:17:22 43° S 13:21:36 10° ESE daylight
28 Apr - 14:53:57 10° W 14:58:05 39° SSW 15:02:16 10° SE daylight
28 Apr - 16:35:25 10° WSW 16:38:31 19° SSW 16:41:39 10° SSE daylight
29 Apr - 10:05:31 10° SSE 10:07:12 12° SE 10:08:53 10° ESE daylight
29 Apr - 11:43:30 10° SW 11:47:23 31° SSE 11:51:20 10° E daylight
29 Apr - 13:23:50 10° WSW 13:28:03 45° S 13:32:19 10° ESE daylight
29 Apr - 15:04:45 10° W 15:08:43 32° SSW 15:12:44 10° SE daylight
29 Apr - 16:47:00 10° WSW 16:48:58 13° SW 16:50:57 10° SSW daylight
30 Apr - 10:14:41 10° S 10:17:37 18° SSE 10:20:34 10° ESE daylight
30 Apr - 11:53:56 10° SW 11:58:00 38° SSE 12:02:07 10° E daylight
30 Apr - 13:34:31 10° WSW 13:38:43 43° S 13:42:58 10° ESE daylight
30 Apr - 15:15:38 10° W 15:19:17 25° SSW 15:22:57 10° SSE daylight
01 May - 10:24:33 10° SSW 10:28:05 24° SSE 10:31:39 10° E daylight
01 May - 12:04:28 10° WSW 12:08:37 43° S 12:12:50 10° ESE daylight
01 May - 13:45:14 10° W 13:49:21 38° SSW 13:53:30 10° SE daylight
01 May - 15:26:42 10° WSW 15:29:46 18° SSW 15:32:51 10° SSE daylight
02 May - 08:56:47 10° SSE 08:58:25 12° SE 09:00:03 10° ESE daylight
02 May - 10:34:45 10° SW 10:38:36 31° SSE 10:42:31 10° E daylight
02 May - 12:15:04 10° WSW 12:19:16 45° S 12:23:30 10° ESE daylight
02 May - 13:56:00 10° W 13:59:55 32° SSW 14:03:54 10° SE daylight
02 May - 15:38:15 10° WSW 15:40:10 13° SW 15:42:04 10° SSW daylight
